Date String (YYYY-MM-DD hh:mm:ss) UTC,Instrument flags,absolute air pressure of the measurement (hPa),sample flow rate (lpm),inlet stack bypass flow (lpm),air temperature of the measurement (°C),ambient temperature measured by the external sensor (°C),aerosol sample conditioner tube jacket temperature (°C),OPC LED temperature (°C),internal box temperature (°C),relative humidity of the measurement (%),span deviation,mass concentration of particles derived from Lorenz-Mie calculation of OPC scattering (μg/m³),mass concentration of particles derived from Lorenz-Mie calculation of OPC scattering (μg/m³),mass concentration of particles derived from Lorenz-Mie calculation of OPC scattering (μg/m³)
DateTimeUTC,F1_M11,P_M11,Q1_M11,Q2_M11,T1_M11,T2_M11,T3_M11,T4_M11,T5_M11,U1_M11,ZSPAN_M11,X2_M11,X0_M11,X1_M11
2023-12-14 21:00:00,SystemResetWarning,0831.5,5.00,000.00,018.8,017.9,000.0,027.1,020.0,23.2,0000.3,0019.26,0026.81,0018.27
2023-12-14 21:01:00,SystemResetWarning,0831.5,5.00,000.00,018.8,017.9,000.0,027.1,020.0,23.3,0000.2,0019.32,0026.65,0018.29
2023-12-14 21:02:00,SystemResetWarning,0831.4,5.00,000.00,018.8,017.9,000.0,027.1,020.0,23.3,0000.3,0019.33,0026.50,0018.30
2023-12-14 21:03:00,SystemResetWarning,0831.5,5.00,000.00,018.8,017.9,000.0,027.1,020.0,23.1,0000.3,0019.37,0026.52,0018.32
2023-12-14 21:04:00,SystemResetWarning,0831.6,4.99,000.00,018.8,017.9,000.0,027.1,020.0,23.2,0000.5,0019.36,0026.43,0018.34
2023-12-14 21:05:00,SystemResetWarning,0831.6,5.00,000.00,018.8,017.9,000.0,027.1,020.0,23.1,0000.5,0019.39,0026.53,0018.35
2023-12-14 21:06:00,SystemResetWarning,0831.6,5.01,000.00,018.8,017.9,000.0,027.1,020.0,23.1,0000.5,0019.39,0027.19,0018.32
2023-12-14 21:07:00,SystemResetWarning,0831.6,5.00,000.00,018.8,017.9,000.0,027.1,020.0,23.3,0000.7,0019.37,0027.09,0018.28
2023-12-14 21:08:00,SystemResetWarning,0831.6,5.00,000.00,018.8,017.9,000.0,027.1,020.0,23.2,0000.7,0019.36,0027.38,0018.24
2023-12-14 21:09:00,SystemResetWarning,0831.6,4.99,000.00,018.8,017.9,000.0,027.1,020.0,23.2,0000.8,0019.36,0027.72,0018.23
2023-12-14 21:10:00,SystemResetWarning,0831.6,4.99,000.00,018.8,017.9,000.0,027.1,020.0,23.2,0000.8,0019.38,0027.88,0018.22
2023-12-14 21:11:00,SystemResetWarning,0831.6,5.00,000.00,018.8,017.9,000.0,027.1,020.0,23.2,0000.7,0019.37,0027.93,0018.22
2023-12-14 21:12:00,SystemResetWarning,0831.6,5.01,000.00,018.8,017.9,000.0,027.1,020.0,23.2,0000.6,0019.37,0028.67,0018.21
2023-12-14 21:13:00,SystemResetWarning,0831.6,5.01,000.00,018.8,017.9,000.0,027.1,020.0,23.2,0000.5,0019.32,0029.24,0018.18
2023-12-14 21:14:00,SystemResetWarning,0831.5,4.99,000.00,018.8,017.9,000.0,027.1,020.0,23.1,0000.5,0019.27,0029.01,0018.16
2023-12-14 21:15:00,SystemResetWarning,0831.5,4.99,000.00,018.8,017.9,000.0,027.1,020.0,23.1,0000.4,0019.22,0029.19,0018.10
2023-12-14 21:16:00,SystemResetWarning,0831.5,5.00,000.00,018.8,017.9,000.0,027.1,020.0,23.3,0000.3,0019.15,0029.53,0018.07
2023-12-14 21:17:00,SystemResetWarning,0831.5,5.00,000.00,018.8,017.9,000.0,027.1,020.0,23.3,0000.3,0019.09,0028.83,0018.08
2023-12-14 21:18:00,SystemResetWarning,0831.5,5.00,000.00,018.8,017.9,000.0,027.1,020.0,23.3,0000.3,0019.03,0028.99,0018.07
2023-12-14 21:19:00,SystemResetWarning,0831.5,5.00,000.00,018.8,017.9,000.0,027.1,020.0,23.3,0000.2,0019.00,0028.79,0018.07
2023-12-14 21:20:00,SystemResetWarning,0831.5,5.01,000.00,018.8,017.9,000.0,027.1,020.0,23.4,0000.2,0018.97,0029.21,0018.06
2023-12-14 21:21:00,SystemResetWarning,0831.5,5.00,000.00,018.8,017.9,000.0,027.1,020.0,23.3,0000.3,0018.97,0029.15,0018.03
2023-12-14 21:22:00,SystemResetWarning,0831.5,5.00,000.00,018.8,017.9,000.0,027.1,020.0,23.3,0000.4,0018.92,0029.04,0017.99
2023-12-14 21:23:00,SystemResetWarning,0831.5,4.99,000.00,018.8,017.9,000.0,027.1,020.0,23.3,0000.4,0018.86,0028.25,0017.97
2023-12-14 21:24:00,SystemResetWarning,0831.5,5.00,000.00,018.8,018.0,000.0,027.1,020.0,23.3,0000.6,0018.82,0028.41,0017.92
2023-12-14 21:25:00,SystemResetWarning,0831.4,5.00,000.00,018.8,017.9,000.0,027.1,020.0,23.3,0000.7,0018.77,0028.71,0017.88
2023-12-14 21:26:00,SystemResetWarning,0831.4,4.99,000.00,018.8,017.9,000.0,027.1,020.1,23.4,0000.7,0018.71,0028.64,0017.83
2023-12-14 21:27:00,SystemResetWarning,0831.5,5.00,000.00,018.8,017.9,000.0,027.1,020.1,23.3,0000.8,0018.69,0028.19,0017.80
2023-12-14 21:28:00,SystemResetWarning,0831.4,5.00,000.00,018.8,018.0,000.0,027.1,020.0,23.2,0000.9,0018.65,0028.26,0017.73
2023-12-14 21:29:00,SystemResetWarning,0831.4,5.00,000.00,018.8,018.0,000.0,027.1,020.1,23.2,0001.0,0018.58,0027.97,0017.65
2023-12-14 21:30:00,SystemResetWarning,0831.4,5.00,000.00,018.8,018.0,000.0,027.1,020.1,23.3,0001.0,0018.54,0027.77,0017.57
2023-12-14 21:31:00,SystemResetWarning,0831.4,4.99,000.00,018.8,018.0,000.0,027.1,020.1,23.3,0001.1,0018.52,0027.26,0017.54
2023-12-14 21:32:00,SystemResetWarning,0831.4,5.00,000.00,018.8,018.0,000.0,027.1,020.1,23.4,0001.1,0018.53,0027.28,0017.54
2023-12-14 21:33:00,SystemResetWarning,0831.5,4.99,000.00,018.8,018.0,000.0,027.1,020.1,23.3,0001.0,0018.52,0027.40,0017.52
2023-12-14 21:34:00,SystemResetWarning,0831.4,5.00,000.00,018.8,018.0,000.0,027.1,020.1,23.2,0000.8,0018.50,0027.52,0017.50
2023-12-14 21:35:00,SystemResetWarning,0831.4,5.01,000.00,018.8,018.0,000.0,027.1,020.1,23.3,0001.0,0018.47,0027.10,0017.50
2023-12-14 21:36:00,SystemResetWarning,0831.4,5.01,000.00,018.8,018.0,000.0,027.1,020.1,23.3,0001.0,0018.45,0026.12,0017.48
2023-12-14 21:37:00,SystemResetWarning,0831.4,4.99,000.00,018.8,018.0,000.0,027.1,020.1,23.4,0001.1,0018.43,0026.16,0017.44
2023-12-14 21:38:00,SystemResetWarning,0831.4,4.99,000.00,018.9,018.0,000.0,027.1,020.1,23.5,0001.1,0018.40,0026.41,0017.41
2023-12-14 21:39:00,SystemResetWarning,0831.4,4.99,000.00,018.9,018.0,000.0,027.1,020.1,23.5,0001.1,0018.39,0026.68,0017.40
2023-12-14 21:40:00,SystemResetWarning,0831.5,5.02,000.00,018.9,018.0,000.0,027.1,020.1,23.5,0001.0,0018.36,0026.62,0017.37
2023-12-14 21:41:00,SystemResetWarning,0831.4,5.01,000.00,018.9,018.0,000.0,027.1,020.1,23.5,0000.8,0018.33,0026.25,0017.33
2023-12-14 21:42:00,SystemResetWarning,0831.4,4.99,000.00,018.9,018.0,000.0,027.1,020.1,23.5,0000.7,0018.28,0026.08,0017.33
2023-12-14 21:43:00,SystemResetWarning,0831.4,4.99,000.00,018.9,018.0,000.0,027.1,020.1,23.5,0000.6,0018.22,0025.76,0017.30
2023-12-14 21:44:00,SystemResetWarning,0831.4,5.00,000.00,018.9,018.0,000.0,027.1,020.1,23.5,0000.6,0018.15,0025.52,0017.27
2023-12-14 21:45:00,SystemResetWarning,0831.4,5.01,000.00,018.9,018.0,000.0,027.1,020.2,23.4,0000.7,0018.09,0025.26,0017.26
2023-12-14 21:46:00,SystemResetWarning,0831.4,5.01,000.00,018.9,018.0,000.0,027.1,020.2,23.4,0000.8,0018.09,0025.15,0017.25
2023-12-14 21:47:00,SystemResetWarning,0831.4,5.00,000.00,018.9,018.0,000.0,027.1,020.2,23.4,0000.6,0018.11,0025.74,0017.26
2023-12-14 21:48:00,SystemResetWarning,0831.4,4.99,000.00,018.9,018.0,000.0,027.1,020.2,23.4,0000.6,0018.17,0026.16,0017.30
2023-12-14 21:49:00,SystemResetWarning,0831.4,4.99,000.00,018.9,018.1,000.0,027.1,020.2,23.4,0000.5,0018.20,0026.20,0017.32
2023-12-14 21:50:00,SystemResetWarning,0831.3,5.00,000.00,018.9,018.1,000.0,027.1,020.2,23.5,0000.6,0018.15,0025.96,0017.28
2023-12-14 21:51:00,SystemResetWarning,0831.3,5.00,000.00,018.9,018.1,000.0,027.1,020.2,23.7,0000.5,0018.11,0026.34,0017.26
2023-12-14 21:52:00,SystemResetWarning,0831.4,5.00,000.00,018.9,018.1,000.0,027.1,020.2,23.7,0000.5,0018.17,0026.68,0017.30
2023-12-14 21:53:00,SystemResetWarning,0831.4,5.00,000.00,018.9,018.1,000.0,027.2,020.2,23.7,0000.5,0018.19,0027.00,0017.32
2023-12-14 21:54:00,SystemResetWarning,0831.4,5.00,000.00,018.9,018.1,000.0,027.2,020.2,23.7,0000.4,0018.22,0027.16,0017.31
2023-12-14 21:55:00,SystemResetWarning,0831.4,5.00,000.00,018.9,018.1,000.0,027.2,020.2,23.6,0000.3,0018.24,0027.21,0017.32
2023-12-14 21:56:00,SystemResetWarning,0831.4,5.01,000.00,018.9,018.1,000.0,027.2,020.2,23.7,0000.3,0018.25,0027.19,0017.31
2023-12-14 21:57:00,SystemResetWarning,0831.3,5.00,000.00,018.9,018.1,000.0,027.2,020.2,23.7,0000.3,0018.23,0027.21,0017.29
2023-12-14 21:58:00,SystemResetWarning,0831.3,5.00,000.00,019.0,018.1,000.0,027.2,020.2,23.5,0000.2,0018.23,0026.81,0017.26
2023-12-14 21:59:00,SystemResetWarning,0831.3,5.00,000.00,019.0,018.1,000.0,027.2,020.2,23.4,0000.2,0018.18,0026.59,0017.20
